Year,Month,Day,Hour,Minute,Value (Times are PST for temperature in C)
2011,08,18,00,00,12.10
2011,08,18,00,01,12.10
2011,08,18,00,02,12.10
2011,08,18,00,03,12.10
2011,08,18,00,04,12.10
2011,08,18,00,05,12.00
2011,08,18,00,06,12.00
2011,08,18,00,07,12.00
2011,08,18,00,08,12.00
2011,08,18,00,09,12.00
2011,08,18,00,10,12.00
2011,08,18,00,11,12.00
2011,08,18,00,12,11.90
2011,08,18,00,13,11.90
2011,08,18,00,14,11.90
2011,08,18,00,15,11.90
2011,08,18,00,16,11.90
2011,08,18,00,17,11.90
2011,08,18,00,18,11.90
2011,08,18,00,19,11.80
2011,08,18,00,20,11.80
2011,08,18,00,21,11.80
2011,08,18,00,22,11.80
2011,08,18,00,23,11.80
2011,08,18,00,24,11.80
2011,08,18,00,25,11.80
2011,08,18,00,26,11.80
2011,08,18,00,27,11.80
2011,08,18,00,28,11.80
2011,08,18,00,29,11.80
2011,08,18,00,30,11.80
2011,08,18,00,31,11.80
2011,08,18,00,32,11.80
2011,08,18,00,33,11.80
2011,08,18,00,34,11.80
2011,08,18,00,35,11.80
2011,08,18,00,36,11.80
2011,08,18,00,37,11.80
2011,08,18,00,38,11.80
2011,08,18,00,39,11.80
2011,08,18,00,40,11.80
2011,08,18,00,41,11.80
2011,08,18,00,42,11.80
2011,08,18,00,43,11.80
2011,08,18,00,44,11.90
2011,08,18,00,45,11.90
2011,08,18,00,46,12.00
2011,08,18,00,47,12.00
2011,08,18,00,48,12.00
2011,08,18,00,49,11.90
2011,08,18,00,50,11.90
2011,08,18,00,51,11.90
2011,08,18,00,52,11.80
2011,08,18,00,53,11.80
2011,08,18,00,54,11.80
2011,08,18,00,55,11.80
2011,08,18,00,56,11.90
2011,08,18,00,57,11.90
2011,08,18,00,58,11.90
2011,08,18,00,59,11.90
2011,08,18,01,00,11.80
2011,08,18,01,01,11.80
2011,08,18,01,02,11.80
2011,08,18,01,03,11.80
2011,08,18,01,04,11.70
2011,08,18,01,05,11.70
2011,08,18,01,06,11.70
2011,08,18,01,07,11.70
2011,08,18,01,08,11.70
2011,08,18,01,09,11.70
2011,08,18,01,10,11.70
2011,08,18,01,11,11.70
2011,08,18,01,12,11.60
2011,08,18,01,13,11.60
2011,08,18,01,14,11.60
2011,08,18,01,15,11.60
2011,08,18,01,16,11.60
2011,08,18,01,17,11.60
2011,08,18,01,18,11.60
2011,08,18,01,19,11.60
2011,08,18,01,20,11.60
2011,08,18,01,21,11.60
2011,08,18,01,22,11.60
2011,08,18,01,23,11.60
2011,08,18,01,24,11.60
2011,08,18,01,25,11.60
2011,08,18,01,26,11.60
2011,08,18,01,27,11.60
2011,08,18,01,28,11.60
2011,08,18,01,29,11.60
2011,08,18,01,30,11.60
2011,08,18,01,31,11.50
2011,08,18,01,32,11.40
2011,08,18,01,33,11.40
2011,08,18,01,34,11.40
2011,08,18,01,35,11.40
2011,08,18,01,36,11.40
2011,08,18,01,37,11.40
2011,08,18,01,38,11.40
2011,08,18,01,39,11.30
2011,08,18,01,40,11.30
2011,08,18,01,41,11.30
2011,08,18,01,42,11.20
2011,08,18,01,43,11.20
2011,08,18,01,44,11.20
2011,08,18,01,45,11.20
2011,08,18,01,46,11.10
2011,08,18,01,47,11.10
2011,08,18,01,48,11.10
2011,08,18,01,49,11.10
2011,08,18,01,50,11.10
2011,08,18,01,51,11.10
2011,08,18,01,52,11.10
2011,08,18,01,53,11.10
2011,08,18,01,54,11.00
2011,08,18,01,55,10.90
2011,08,18,01,56,10.90
2011,08,18,01,57,10.90
2011,08,18,01,58,10.90
2011,08,18,01,59,10.90
2011,08,18,02,00,10.90
2011,08,18,02,01,10.90
2011,08,18,02,02,10.90
2011,08,18,02,03,10.90
2011,08,18,02,04,10.90
2011,08,18,02,05,10.90
2011,08,18,02,06,10.90
2011,08,18,02,07,10.90
2011,08,18,02,08,10.90
2011,08,18,02,09,10.90
2011,08,18,02,10,10.90
2011,08,18,02,11,10.90
2011,08,18,02,12,10.90
2011,08,18,02,13,10.90
2011,08,18,02,14,10.90
2011,08,18,02,15,10.90
2011,08,18,02,16,10.90
2011,08,18,02,17,10.90
2011,08,18,02,18,10.90
2011,08,18,02,19,10.90
2011,08,18,02,20,10.90
2011,08,18,02,21,10.90
2011,08,18,02,22,10.80
2011,08,18,02,23,10.80
2011,08,18,02,24,10.80
2011,08,18,02,25,10.80
2011,08,18,02,26,10.80
2011,08,18,02,27,10.70
2011,08,18,02,28,10.70
2011,08,18,02,29,10.70
2011,08,18,02,30,10.70
2011,08,18,02,31,10.70
2011,08,18,02,32,10.70
2011,08,18,02,33,10.70
2011,08,18,02,34,10.70
2011,08,18,02,35,10.70
2011,08,18,02,36,10.60
2011,08,18,02,37,10.60
2011,08,18,02,38,10.60
2011,08,18,02,39,10.60
2011,08,18,02,40,10.60
2011,08,18,02,41,10.60
2011,08,18,02,42,10.60
2011,08,18,02,43,10.60
2011,08,18,02,44,10.60
2011,08,18,02,45,10.60
2011,08,18,02,46,10.60
2011,08,18,02,47,10.60
2011,08,18,02,48,10.60
2011,08,18,02,49,10.60
2011,08,18,02,50,10.60
2011,08,18,02,51,10.50
2011,08,18,02,52,10.40
2011,08,18,02,53,10.40
2011,08,18,02,54,10.40
2011,08,18,02,55,10.40
2011,08,18,02,56,10.40
2011,08,18,02,57,10.40
2011,08,18,02,58,10.40
2011,08,18,02,59,10.40
2011,08,18,03,00,10.40
2011,08,18,03,01,10.40
2011,08,18,03,02,10.40
2011,08,18,03,03,10.40
2011,08,18,03,04,10.60
2011,08,18,03,05,10.60
2011,08,18,03,06,10.60
2011,08,18,03,07,10.60
2011,08,18,03,08,10.60
2011,08,18,03,09,10.60
2011,08,18,03,10,10.60
2011,08,18,03,11,10.60
2011,08,18,03,12,10.60
2011,08,18,03,13,10.60
2011,08,18,03,14,10.60
2011,08,18,03,15,10.60
2011,08,18,03,16,10.60
2011,08,18,03,17,10.60
2011,08,18,03,18,10.60
2011,08,18,03,19,10.60
2011,08,18,03,20,10.60
2011,08,18,03,21,10.60
2011,08,18,03,22,10.60
2011,08,18,03,23,10.50
2011,08,18,03,24,10.40
2011,08,18,03,25,10.40
2011,08,18,03,26,10.40
2011,08,18,03,27,10.40
2011,08,18,03,28,10.40
2011,08,18,03,29,10.40
2011,08,18,03,30,10.40
2011,08,18,03,31,10.40
2011,08,18,03,32,10.40
2011,08,18,03,33,10.40
2011,08,18,03,34,10.40
2011,08,18,03,35,10.40
2011,08,18,03,36,10.40
2011,08,18,03,37,10.40
2011,08,18,03,38,10.40
2011,08,18,03,39,10.40
2011,08,18,03,40,10.40
2011,08,18,03,41,10.40
2011,08,18,03,42,10.40
2011,08,18,03,43,10.40
2011,08,18,03,44,10.40
2011,08,18,03,45,10.40
2011,08,18,03,46,10.40
2011,08,18,03,47,10.40
2011,08,18,03,48,10.40
2011,08,18,03,49,10.60
2011,08,18,03,50,10.60
2011,08,18,03,51,10.60
2011,08,18,03,52,10.60
2011,08,18,03,53,10.60
2011,08,18,03,54,10.60
2011,08,18,03,55,10.60
2011,08,18,03,56,10.60
2011,08,18,03,57,10.60
2011,08,18,03,58,10.60
2011,08,18,03,59,10.60
2011,08,18,04,00,10.60
2011,08,18,04,01,10.60
2011,08,18,04,02,10.60
2011,08,18,04,03,10.60
2011,08,18,04,04,10.60
2011,08,18,04,05,10.60
2011,08,18,04,06,10.60
2011,08,18,04,07,10.60
2011,08,18,04,08,10.60
2011,08,18,04,09,10.60
2011,08,18,04,10,10.60
2011,08,18,04,11,10.60
2011,08,18,04,12,10.60
2011,08,18,04,13,10.60
2011,08,18,04,14,10.60
2011,08,18,04,15,10.60
2011,08,18,04,16,10.60
2011,08,18,04,17,10.60
2011,08,18,04,18,10.60
2011,08,18,04,19,10.60
2011,08,18,04,20,10.60
2011,08,18,04,21,10.60
2011,08,18,04,22,10.60
2011,08,18,04,23,10.60
2011,08,18,04,24,10.60
2011,08,18,04,25,10.70
2011,08,18,04,26,10.70
2011,08,18,04,27,10.70
2011,08,18,04,28,10.70
2011,08,18,04,29,10.70
2011,08,18,04,30,10.70
2011,08,18,04,31,10.70
2011,08,18,04,32,10.80
2011,08,18,04,33,10.80
2011,08,18,04,34,10.80
2011,08,18,04,35,10.80
2011,08,18,04,36,10.80
2011,08,18,04,37,10.80
2011,08,18,04,38,10.80
2011,08,18,04,39,10.90
2011,08,18,04,40,10.90
2011,08,18,04,41,10.90
2011,08,18,04,42,10.90
2011,08,18,04,43,10.90
2011,08,18,04,44,10.90
2011,08,18,04,45,10.90
2011,08,18,04,46,10.90
2011,08,18,04,47,10.90
2011,08,18,04,48,10.90
2011,08,18,04,49,10.90
2011,08,18,04,50,10.90
2011,08,18,04,51,10.90
2011,08,18,04,52,10.90
2011,08,18,04,53,10.90
2011,08,18,04,54,10.90
2011,08,18,04,55,10.90
2011,08,18,04,56,10.90
2011,08,18,04,57,10.90
2011,08,18,04,58,11.00
2011,08,18,04,59,11.10
2011,08,18,05,00,11.10
2011,08,18,05,01,11.10
2011,08,18,05,02,11.10
2011,08,18,05,03,11.10
2011,08,18,05,04,11.10
2011,08,18,05,05,11.10
2011,08,18,05,06,11.10
2011,08,18,05,07,11.10
2011,08,18,05,08,11.10
2011,08,18,05,09,11.10
2011,08,18,05,10,11.10
2011,08,18,05,11,11.10
2011,08,18,05,12,11.10
2011,08,18,05,13,11.10
2011,08,18,05,14,11.10
2011,08,18,05,15,11.10
2011,08,18,05,16,11.10
2011,08,18,05,17,11.10
2011,08,18,05,18,11.20
2011,08,18,05,19,11.20
2011,08,18,05,20,11.20
2011,08,18,05,21,11.30
2011,08,18,05,22,11.30
2011,08,18,05,23,11.30
2011,08,18,05,24,11.30
2011,08,18,05,25,11.40
2011,08,18,05,26,11.40
2011,08,18,05,27,11.40
2011,08,18,05,28,11.40
2011,08,18,05,29,11.40
2011,08,18,05,30,11.40
2011,08,18,05,31,11.40
2011,08,18,05,32,11.40
2011,08,18,05,33,11.40
2011,08,18,05,34,11.40
2011,08,18,05,35,11.40
2011,08,18,05,36,11.40
2011,08,18,05,37,11.40
2011,08,18,05,38,11.40
2011,08,18,05,39,11.40
2011,08,18,05,40,11.40
2011,08,18,05,41,11.40
2011,08,18,05,42,11.40
2011,08,18,05,43,11.40
2011,08,18,05,44,11.40
2011,08,18,05,45,11.40
2011,08,18,05,46,11.40
2011,08,18,05,47,11.40
2011,08,18,05,48,11.40
2011,08,18,05,49,11.40
2011,08,18,05,50,11.40
2011,08,18,05,51,11.40
2011,08,18,05,52,11.40
2011,08,18,05,53,11.40
2011,08,18,05,54,11.40
2011,08,18,05,55,11.40
2011,08,18,05,56,11.40
2011,08,18,05,57,11.40
2011,08,18,05,58,11.40
2011,08,18,05,59,11.40
2011,08,18,06,00,11.40
2011,08,18,06,01,11.40
2011,08,18,06,02,11.40
2011,08,18,06,03,11.40
2011,08,18,06,04,11.40
2011,08,18,06,05,11.40
2011,08,18,06,06,11.40
2011,08,18,06,07,11.40
2011,08,18,06,08,11.40
2011,08,18,06,09,11.40
2011,08,18,06,10,11.40
2011,08,18,06,11,11.40
2011,08,18,06,12,11.40
2011,08,18,06,13,11.40
2011,08,18,06,14,11.40
2011,08,18,06,15,11.40
2011,08,18,06,16,11.40
2011,08,18,06,17,11.40
2011,08,18,06,18,11.40
2011,08,18,06,19,11.50
2011,08,18,06,20,11.60
2011,08,18,06,21,11.60
2011,08,18,06,22,11.60
2011,08,18,06,23,11.60
2011,08,18,06,24,11.60
2011,08,18,06,25,11.60
2011,08,18,06,26,11.60
2011,08,18,06,27,11.60
2011,08,18,06,28,11.60
2011,08,18,06,29,11.60
2011,08,18,06,30,11.60
2011,08,18,06,31,11.60
2011,08,18,06,32,11.60
2011,08,18,06,33,11.60
2011,08,18,06,34,11.60
2011,08,18,06,35,11.70
2011,08,18,06,36,11.70
2011,08,18,06,37,11.70
2011,08,18,06,38,11.60
2011,08,18,06,39,11.60
2011,08,18,06,40,11.60
2011,08,18,06,41,11.60
2011,08,18,06,42,11.60
2011,08,18,06,43,11.60
2011,08,18,06,44,11.60
2011,08,18,06,45,11.60
2011,08,18,06,46,11.60
2011,08,18,06,47,11.60
2011,08,18,06,48,11.60
2011,08,18,06,49,11.60
2011,08,18,06,50,11.60
2011,08,18,06,51,11.60
2011,08,18,06,52,11.60
2011,08,18,06,53,11.60
2011,08,18,06,54,11.70
2011,08,18,06,55,11.70
2011,08,18,06,56,11.70
2011,08,18,06,57,11.70
2011,08,18,06,58,11.70
2011,08,18,06,59,11.80
2011,08,18,07,00,11.80
2011,08,18,07,01,11.80
2011,08,18,07,02,11.80
2011,08,18,07,03,11.80
2011,08,18,07,04,11.80
2011,08,18,07,05,11.80
2011,08,18,07,06,11.90
2011,08,18,07,07,11.90
2011,08,18,07,08,11.90
2011,08,18,07,09,11.90
2011,08,18,07,10,12.00
2011,08,18,07,11,12.00
2011,08,18,07,12,12.00
2011,08,18,07,13,12.10
2011,08,18,07,14,12.10
2011,08,18,07,15,12.10
2011,08,18,07,16,12.20
2011,08,18,07,17,12.20
2011,08,18,07,18,12.30
2011,08,18,07,19,12.30
2011,08,18,07,20,12.30
2011,08,18,07,21,12.30
2011,08,18,07,22,12.40
2011,08,18,07,23,12.40
2011,08,18,07,24,12.40
2011,08,18,07,25,12.50
2011,08,18,07,26,12.50
2011,08,18,07,27,12.50
2011,08,18,07,28,12.50
2011,08,18,07,29,12.60
2011,08,18,07,30,12.60
2011,08,18,07,31,12.60
2011,08,18,07,32,12.60
2011,08,18,07,33,12.60
2011,08,18,07,34,12.60
2011,08,18,07,35,12.60
2011,08,18,07,36,12.60
2011,08,18,07,37,12.60
2011,08,18,07,38,12.60
2011,08,18,07,39,12.70
2011,08,18,07,40,12.70
2011,08,18,07,41,12.70
2011,08,18,07,42,12.70
2011,08,18,07,43,12.70
2011,08,18,07,44,12.70
2011,08,18,07,45,12.70
2011,08,18,07,46,12.80
2011,08,18,07,47,12.80
2011,08,18,07,48,12.80
2011,08,18,07,49,12.80
2011,08,18,07,50,12.80
2011,08,18,07,51,12.80
2011,08,18,07,52,12.80
2011,08,18,07,53,12.80
2011,08,18,07,54,12.80
2011,08,18,07,55,12.80
2011,08,18,07,56,12.80
2011,08,18,07,57,12.80
2011,08,18,07,58,12.80
2011,08,18,07,59,12.80
2011,08,18,08,00,12.80
2011,08,18,08,01,12.80
2011,08,18,08,02,12.80
2011,08,18,08,03,12.80
2011,08,18,08,04,12.80
2011,08,18,08,05,12.80
2011,08,18,08,06,12.80
2011,08,18,08,07,12.80
2011,08,18,08,08,12.90
2011,08,18,08,09,12.90
2011,08,18,08,10,12.90
2011,08,18,08,11,12.90
2011,08,18,08,12,12.90
2011,08,18,08,13,13.00
2011,08,18,08,14,13.00
2011,08,18,08,15,13.00
2011,08,18,08,16,13.10
2011,08,18,08,17,13.10
2011,08,18,08,18,13.10
2011,08,18,08,19,13.10
2011,08,18,08,20,13.20
2011,08,18,08,21,13.20
2011,08,18,08,22,13.30
2011,08,18,08,23,13.30
2011,08,18,08,24,13.30
2011,08,18,08,25,13.30
2011,08,18,08,26,13.30
2011,08,18,08,27,13.30
2011,08,18,08,28,13.40
2011,08,18,08,29,13.40
2011,08,18,08,30,13.50
2011,08,18,08,31,13.50
2011,08,18,08,32,13.60
2011,08,18,08,33,13.60
2011,08,18,08,34,13.60
2011,08,18,08,35,13.70
2011,08,18,08,36,13.70
2011,08,18,08,37,13.70
2011,08,18,08,38,13.70
2011,08,18,08,39,13.70
2011,08,18,08,40,13.70
2011,08,18,08,41,13.80
2011,08,18,08,42,13.80
2011,08,18,08,43,13.90
2011,08,18,08,44,13.90
2011,08,18,08,45,14.00
2011,08,18,08,46,14.00
2011,08,18,08,47,14.10
2011,08,18,08,48,14.10
2011,08,18,08,49,14.10
2011,08,18,08,50,14.20
2011,08,18,08,51,14.20
2011,08,18,08,52,14.20
2011,08,18,08,53,14.20
2011,08,18,08,54,14.20
2011,08,18,08,55,14.20
2011,08,18,08,56,14.20
2011,08,18,08,57,14.20
2011,08,18,08,58,14.20
2011,08,18,08,59,14.20
2011,08,18,09,00,14.20
2011,08,18,09,01,14.20
2011,08,18,09,02,14.30
2011,08,18,09,03,14.30
2011,08,18,09,04,14.30
2011,08,18,09,05,14.40
2011,08,18,09,06,14.40
2011,08,18,09,07,14.40
2011,08,18,09,08,14.50
2011,08,18,09,09,14.50
2011,08,18,09,10,14.50
2011,08,18,09,11,14.50
2011,08,18,09,12,14.50
2011,08,18,09,13,14.50
2011,08,18,09,14,14.40
2011,08,18,09,15,14.40
2011,08,18,09,16,14.40
2011,08,18,09,17,14.50
2011,08,18,09,18,14.50
2011,08,18,09,19,14.60
2011,08,18,09,20,14.60
2011,08,18,09,21,14.60
2011,08,18,09,22,14.70
2011,08,18,09,23,14.70
2011,08,18,09,24,14.80
2011,08,18,09,25,14.80
2011,08,18,09,26,14.80
2011,08,18,09,27,14.80
2011,08,18,09,28,14.90
2011,08,18,09,29,14.90
2011,08,18,09,30,14.90
2011,08,18,09,31,14.90
2011,08,18,09,32,14.90
2011,08,18,09,33,14.80
2011,08,18,09,34,14.80
2011,08,18,09,35,14.90
2011,08,18,09,36,14.90
2011,08,18,09,37,14.90
2011,08,18,09,38,14.90
2011,08,18,09,39,14.90
2011,08,18,09,40,14.90
2011,08,18,09,41,14.90
2011,08,18,09,42,15.00
2011,08,18,09,43,15.10
2011,08,18,09,44,15.10
2011,08,18,09,45,15.20
2011,08,18,09,46,15.20
2011,08,18,09,47,15.30
2011,08,18,09,48,15.30
2011,08,18,09,49,15.30
2011,08,18,09,50,15.30
2011,08,18,09,51,15.30
2011,08,18,09,52,15.30
2011,08,18,09,53,15.30
2011,08,18,09,54,15.30
2011,08,18,09,55,15.30
2011,08,18,09,56,15.30
2011,08,18,09,57,15.30
2011,08,18,09,58,15.30
2011,08,18,09,59,15.30
2011,08,18,10,00,15.30
2011,08,18,10,01,15.30
2011,08,18,10,02,15.30
2011,08,18,10,03,15.30
2011,08,18,10,04,15.30
2011,08,18,10,05,15.30
2011,08,18,10,06,15.30
2011,08,18,10,07,15.40
2011,08,18,10,08,15.40
2011,08,18,10,09,15.40
2011,08,18,10,10,15.30
2011,08,18,10,11,15.30
2011,08,18,10,12,15.30
2011,08,18,10,13,15.20
2011,08,18,10,14,15.20
2011,08,18,10,15,15.10
2011,08,18,10,16,15.10
2011,08,18,10,17,15.10
2011,08,18,10,18,15.10
2011,08,18,10,19,15.10
2011,08,18,10,20,15.10
2011,08,18,10,21,15.10
2011,08,18,10,22,15.10
2011,08,18,10,23,15.10
2011,08,18,10,24,15.10
2011,08,18,10,25,15.20
2011,08,18,10,26,15.20
2011,08,18,10,27,15.20
2011,08,18,10,28,15.10
2011,08,18,10,29,15.10
2011,08,18,10,30,15.10
2011,08,18,10,31,15.10
2011,08,18,10,32,15.10
2011,08,18,10,33,15.10
2011,08,18,10,34,15.10
2011,08,18,10,35,15.10
2011,08,18,10,36,15.00
2011,08,18,10,37,15.00
2011,08,18,10,38,15.00
2011,08,18,10,39,15.00
2011,08,18,10,40,15.00
2011,08,18,10,41,15.00
2011,08,18,10,42,15.00
2011,08,18,10,43,15.00
2011,08,18,10,44,15.00
2011,08,18,10,45,14.90
2011,08,18,10,46,15.00
2011,08,18,10,47,15.00
2011,08,18,10,48,15.00
2011,08,18,10,49,15.00
2011,08,18,10,50,15.00
2011,08,18,10,51,15.10
2011,08,18,10,52,15.10
2011,08,18,10,53,15.10
2011,08,18,10,54,15.10
2011,08,18,10,55,15.10
2011,08,18,10,56,15.10
2011,08,18,10,57,15.10
2011,08,18,10,58,15.10
2011,08,18,10,59,15.20
2011,08,18,11,00,15.20
2011,08,18,11,01,15.20
2011,08,18,11,02,15.20
2011,08,18,11,03,15.20
2011,08,18,11,04,15.20
2011,08,18,11,05,15.20
2011,08,18,11,06,15.30
2011,08,18,11,07,15.30
2011,08,18,11,08,15.30
2011,08,18,11,09,15.30
2011,08,18,11,10,15.30
2011,08,18,11,11,15.30
2011,08,18,11,12,15.30
2011,08,18,11,13,15.30
2011,08,18,11,14,15.30
2011,08,18,11,15,15.40
2011,08,18,11,16,15.40
2011,08,18,11,17,15.40
2011,08,18,11,18,15.50
2011,08,18,11,19,15.50
2011,08,18,11,20,15.50
2011,08,18,11,21,15.50
2011,08,18,11,22,15.50
2011,08,18,11,23,15.50
2011,08,18,11,24,15.50
2011,08,18,11,25,15.60
2011,08,18,11,26,15.70
2011,08,18,11,27,15.70
2011,08,18,11,28,15.80
2011,08,18,11,29,15.90
2011,08,18,11,30,16.00
2011,08,18,11,31,16.10
2011,08,18,11,32,16.10
2011,08,18,11,33,16.20
2011,08,18,11,34,16.30
2011,08,18,11,35,16.40
2011,08,18,11,36,16.50
2011,08,18,11,37,16.50
2011,08,18,11,38,16.60
2011,08,18,11,39,16.60
2011,08,18,11,40,16.60
2011,08,18,11,41,16.60
2011,08,18,11,42,16.60
2011,08,18,11,43,16.60
2011,08,18,11,44,16.60
2011,08,18,11,45,16.60
2011,08,18,11,46,16.70
2011,08,18,11,47,16.70
2011,08,18,11,48,16.70
2011,08,18,11,49,16.70
2011,08,18,11,50,16.70
2011,08,18,11,51,16.60
2011,08,18,11,52,16.70
2011,08,18,11,53,16.70
2011,08,18,11,54,16.70
2011,08,18,11,55,16.70
2011,08,18,11,56,16.70
2011,08,18,11,57,16.70
2011,08,18,11,58,16.80
2011,08,18,11,59,16.80
2011,08,18,12,00,16.80
2011,08,18,12,01,16.70
2011,08,18,12,02,16.70
2011,08,18,12,03,16.70
2011,08,18,12,04,16.60
2011,08,18,12,05,16.60
2011,08,18,12,06,16.60
2011,08,18,12,07,16.60
2011,08,18,12,08,16.60
2011,08,18,12,09,16.60
2011,08,18,12,10,16.60
2011,08,18,12,11,16.70
2011,08,18,12,12,16.70
2011,08,18,12,13,16.70
2011,08,18,12,14,16.70
2011,08,18,12,15,16.70
2011,08,18,12,16,16.70
2011,08,18,12,17,16.70
2011,08,18,12,18,16.70
2011,08,18,12,19,16.80
2011,08,18,12,20,16.80
2011,08,18,12,21,16.80
2011,08,18,12,22,16.90
2011,08,18,12,23,17.00
2011,08,18,12,24,17.00
2011,08,18,12,25,17.10
2011,08,18,12,26,17.20
2011,08,18,12,27,17.20
2011,08,18,12,28,17.20
2011,08,18,12,29,17.20
2011,08,18,12,30,17.20
2011,08,18,12,31,17.30
2011,08,18,12,32,17.30
2011,08,18,12,33,17.30
2011,08,18,12,34,17.40
2011,08,18,12,35,17.60
2011,08,18,12,36,17.70
2011,08,18,12,37,17.80
2011,08,18,12,38,17.90
2011,08,18,12,39,17.90
2011,08,18,12,40,17.90
2011,08,18,12,41,17.90
2011,08,18,12,42,17.90
2011,08,18,12,43,17.90
2011,08,18,12,44,17.70
2011,08,18,12,45,17.60
2011,08,18,12,46,17.50
2011,08,18,12,47,17.50
2011,08,18,12,48,17.40
2011,08,18,12,49,17.40
2011,08,18,12,50,17.40
2011,08,18,12,51,17.40
2011,08,18,12,52,17.50
2011,08,18,12,53,17.50
2011,08,18,12,54,17.40
2011,08,18,12,55,17.40
2011,08,18,12,56,17.40
2011,08,18,12,57,17.40
2011,08,18,12,58,17.40
2011,08,18,12,59,17.40
2011,08,18,13,00,17.40
2011,08,18,13,01,17.50
2011,08,18,13,02,17.50
2011,08,18,13,03,17.60
2011,08,18,13,04,17.70
2011,08,18,13,05,17.70
2011,08,18,13,06,17.70
2011,08,18,13,07,17.70
2011,08,18,13,08,17.70
2011,08,18,13,09,17.70
2011,08,18,13,10,17.70
2011,08,18,13,11,17.70
2011,08,18,13,12,17.70
2011,08,18,13,13,17.60
2011,08,18,13,14,17.50
2011,08,18,13,15,17.50
2011,08,18,13,16,17.50
2011,08,18,13,17,17.40
2011,08,18,13,18,17.40
2011,08,18,13,19,17.40
2011,08,18,13,20,17.40
2011,08,18,13,21,17.30
2011,08,18,13,22,17.30
2011,08,18,13,23,17.30
2011,08,18,13,24,17.30
2011,08,18,13,25,17.30
2011,08,18,13,26,17.30
2011,08,18,13,27,17.30
2011,08,18,13,28,17.40
2011,08,18,13,29,17.50
2011,08,18,13,30,17.60
2011,08,18,13,31,17.60
2011,08,18,13,32,17.60
2011,08,18,13,33,17.50
2011,08,18,13,34,17.50
2011,08,18,13,35,17.50
2011,08,18,13,36,17.60
2011,08,18,13,37,17.60
2011,08,18,13,38,17.60
2011,08,18,13,39,17.60
2011,08,18,13,40,17.70
2011,08,18,13,41,17.80
2011,08,18,13,42,17.90
2011,08,18,13,43,17.90
2011,08,18,13,44,18.00
2011,08,18,13,45,18.10
2011,08,18,13,46,18.20
2011,08,18,13,47,18.30
2011,08,18,13,48,18.30
2011,08,18,13,49,18.40
2011,08,18,13,50,18.50
2011,08,18,13,51,18.60
2011,08,18,13,52,18.60
2011,08,18,13,53,18.70
2011,08,18,13,54,18.80
2011,08,18,13,55,18.80
2011,08,18,13,56,18.90
2011,08,18,13,57,19.00
2011,08,18,13,58,19.10
2011,08,18,13,59,19.10
2011,08,18,14,00,19.10
2011,08,18,14,01,19.10
2011,08,18,14,02,19.00
2011,08,18,14,03,18.90
2011,08,18,14,04,18.90
2011,08,18,14,05,18.90
2011,08,18,14,06,18.90
2011,08,18,14,07,18.90
2011,08,18,14,08,18.90
2011,08,18,14,09,18.90
2011,08,18,14,10,18.90
2011,08,18,14,11,18.90
2011,08,18,14,12,18.90
2011,08,18,14,13,18.90
2011,08,18,14,14,18.90
2011,08,18,14,15,18.90
2011,08,18,14,16,18.90
2011,08,18,14,17,18.90
2011,08,18,14,18,18.80
2011,08,18,14,19,18.80
2011,08,18,14,20,18.80
2011,08,18,14,21,18.80
2011,08,18,14,22,18.80
2011,08,18,14,23,18.80
2011,08,18,14,24,18.80
2011,08,18,14,25,18.70
2011,08,18,14,26,18.70
2011,08,18,14,27,18.60
2011,08,18,14,28,18.60
2011,08,18,14,29,18.60
2011,08,18,14,30,18.50
2011,08,18,14,31,18.40
2011,08,18,14,32,18.40
2011,08,18,14,33,18.30
2011,08,18,14,34,18.20
2011,08,18,14,35,18.20
2011,08,18,14,36,18.10
2011,08,18,14,37,18.10
2011,08,18,14,38,18.10
2011,08,18,14,39,18.10
2011,08,18,14,40,18.10
2011,08,18,14,41,18.10
2011,08,18,14,42,18.10
2011,08,18,14,43,18.10
2011,08,18,14,44,17.90
2011,08,18,14,45,17.90
2011,08,18,14,46,17.80
2011,08,18,14,47,17.80
2011,08,18,14,48,17.80
2011,08,18,14,49,17.70
2011,08,18,14,50,17.70
2011,08,18,14,51,17.60
2011,08,18,14,52,17.50
2011,08,18,14,53,17.40
2011,08,18,14,54,17.30
2011,08,18,14,55,17.20
2011,08,18,14,56,17.00
2011,08,18,14,57,17.00
2011,08,18,14,58,16.90
2011,08,18,14,59,16.70
2011,08,18,15,00,16.70
2011,08,18,15,01,16.50
2011,08,18,15,02,16.40
2011,08,18,15,03,16.20
2011,08,18,15,04,16.10
2011,08,18,15,05,16.00
2011,08,18,15,06,15.90
2011,08,18,15,07,15.80
2011,08,18,15,08,15.80
2011,08,18,15,09,15.90
2011,08,18,15,10,15.90
2011,08,18,15,11,15.90
2011,08,18,15,12,15.90
2011,08,18,15,13,15.90
2011,08,18,15,14,16.10
2011,08,18,15,15,16.10
2011,08,18,15,16,16.10
2011,08,18,15,17,16.20
2011,08,18,15,18,16.20
2011,08,18,15,19,16.30
2011,08,18,15,20,16.40
2011,08,18,15,21,16.40
2011,08,18,15,22,16.50
2011,08,18,15,23,16.60
2011,08,18,15,24,16.60
2011,08,18,15,25,16.60
2011,08,18,15,26,16.60
2011,08,18,15,27,16.70
2011,08,18,15,28,16.70
2011,08,18,15,29,16.70
2011,08,18,15,30,16.90
2011,08,18,15,31,17.00
2011,08,18,15,32,17.10
2011,08,18,15,33,17.20
2011,08,18,15,34,17.30
2011,08,18,15,35,17.40
2011,08,18,15,36,17.50
2011,08,18,15,37,17.70
2011,08,18,15,38,17.90
2011,08,18,15,39,18.00
2011,08,18,15,40,18.20
2011,08,18,15,41,18.20
2011,08,18,15,42,18.30
2011,08,18,15,43,18.30
2011,08,18,15,44,18.40
2011,08,18,15,45,18.40
2011,08,18,15,46,18.50
2011,08,18,15,47,18.60
2011,08,18,15,48,18.70
2011,08,18,15,49,18.80
2011,08,18,15,50,18.90
2011,08,18,15,51,19.00
2011,08,18,15,52,19.10
2011,08,18,15,53,19.10
2011,08,18,15,54,19.10
2011,08,18,15,55,19.20
2011,08,18,15,56,19.20
2011,08,18,15,57,19.20
2011,08,18,15,58,19.20
2011,08,18,15,59,19.20
2011,08,18,16,00,19.30
2011,08,18,16,01,19.30
2011,08,18,16,02,19.20
2011,08,18,16,03,19.30
2011,08,18,16,04,19.30
2011,08,18,16,05,19.30
2011,08,18,16,06,19.30
2011,08,18,16,07,19.30
2011,08,18,16,08,19.30
2011,08,18,16,09,19.30
2011,08,18,16,10,19.30
2011,08,18,16,11,19.30
2011,08,18,16,12,19.30
2011,08,18,16,13,19.30
2011,08,18,16,14,19.40
2011,08,18,16,15,19.40
2011,08,18,16,16,19.40
2011,08,18,16,17,19.50
2011,08,18,16,18,19.60
2011,08,18,16,19,19.60
2011,08,18,16,20,19.80
2011,08,18,16,21,19.90
2011,08,18,16,22,19.90
2011,08,18,16,23,20.00
2011,08,18,16,24,20.00
2011,08,18,16,25,19.90
2011,08,18,16,26,19.90
2011,08,18,16,27,19.90
2011,08,18,16,28,19.90
2011,08,18,16,29,20.00
2011,08,18,16,30,20.10
2011,08,18,16,31,20.10
2011,08,18,16,32,20.10
2011,08,18,16,33,20.20
2011,08,18,16,34,20.20
2011,08,18,16,35,20.20
2011,08,18,16,36,20.30
2011,08,18,16,37,20.40
2011,08,18,16,38,20.50
2011,08,18,16,39,20.60
2011,08,18,16,40,20.60
2011,08,18,16,41,20.60
2011,08,18,16,42,20.70
2011,08,18,16,43,20.80
2011,08,18,16,44,20.90
2011,08,18,16,45,21.00
2011,08,18,16,46,21.00
2011,08,18,16,47,21.00
2011,08,18,16,48,20.80
2011,08,18,16,49,20.70
2011,08,18,16,50,20.60
2011,08,18,16,51,20.60
2011,08,18,16,52,20.70
2011,08,18,16,53,20.80
2011,08,18,16,54,20.80
2011,08,18,16,55,20.90
2011,08,18,16,56,20.90
2011,08,18,16,57,20.90
2011,08,18,16,58,20.80
2011,08,18,16,59,20.70
2011,08,18,17,00,20.70
2011,08,18,17,01,20.70
2011,08,18,17,02,20.70
2011,08,18,17,03,20.70
2011,08,18,17,04,20.70
2011,08,18,17,05,20.70
2011,08,18,17,06,20.70
2011,08,18,17,07,20.60
2011,08,18,17,08,20.60
2011,08,18,17,09,20.50
2011,08,18,17,10,20.40
2011,08,18,17,11,20.30
2011,08,18,17,12,20.30
2011,08,18,17,13,20.30
2011,08,18,17,14,20.30
2011,08,18,17,15,20.30
2011,08,18,17,16,20.40
2011,08,18,17,17,20.50
2011,08,18,17,18,20.50
2011,08,18,17,19,20.40